EW3804 Weather Reports


Display with metric or nautical units.
time (UTC)temp
F
wind
direction
speed
MPH
gust
MPH
rain 1hr
in
rain 24hr
in
rain mn
in
humidity
%
barometer
mb
20260506081522 75 114 0.0 4.0 0.00 0.00 0.00 92 1000.3
20260506073020 75 147 0.0 0.0 0.00 0.00 0.00 91 1000.6
20260506071519 75 174 0.0 0.0 0.00 0.00 0.00 91 1000.7
20260506061516 75 178 0.0 2.0 0.00 0.00 0.00 92 1000.5
20260506044503 75 157 0.0 0.0 0.00 0.00 0.00 91 999.8
20260506043006 75 153 0.0 0.0 0.00 0.00 0.00 90 999.9
20260506041502 76 150 0.0 3.0 0.00 0.00 0.00 89 999.9
20260506040003 76 147 3.0 8.0 0.00 0.00 0.00 89 999.8
20260506034600 76 83 0.0 6.0 0.00 0.00 0.00 88 999.4
20260506033110 76 160 0.0 4.0 0.00 0.00 0.00 88 999.3
20260506031603 76 170 0.0 4.0 0.00 0.00 0.00 87 999.2
20260506030113 76 150 0.0 2.0 0.00 0.00 0.00 87 998.6
20260506024558 77 134 0.0 0.0 0.00 0.00 0.00 86 998.4
20260506023057 77 149 0.0 0.0 0.00 0.00 0.00 85 998.2
20260506021603 77 117 0.0 0.0 0.00 0.00 0.00 85 997.9
20260506020056 77 143 0.0 0.0 0.00 0.00 0.00 84 997.9
20260506014601 78 135 0.0 0.0 0.00 0.00 0.00 83 997.7
20260506013055 78 164 0.0 4.0 0.00 0.00 0.00 82 997.5
20260506011558 79 130 0.0 2.0 0.00 0.00 0.00 81 997.5
20260506010058 80 158 0.0 4.0 0.00 0.00 0.00 80 997.4
20260506004624 80 141 0.0 4.0 0.00 0.00 0.00 78 997.3
20260506003052 81 161 0.0 5.0 0.00 0.00 0.00 76 997.2
20260506001552 83 172 0.0 0.0 0.00 0.00 0.00 74 997.4
20260506000051 83 122 0.0 4.0 0.00 0.00 0.00 74 997.5
20260505234611 83 175 0.0 2.0 0.00 0.00 0.00 73 997.3
20260505233049 84 159 0.0 4.0 0.00 0.00 0.00 72 997.2
20260505231550 83 213 0.0 7.0 0.00 0.00 0.00 73 997.2
20260505230051 84 101 0.0 7.0 0.00 0.00 0.00 71 997.1
20260505224550 84 159 0.0 0.0 0.00 0.00 0.00 71 997.2
20260505223059 84 155 0.0 4.0 0.00 0.00 0.00 71 997.2
20260505221558 84 98 0.0 0.0 0.00 0.00 0.00 71 997.0
20260505220057 84 155 0.0 4.0 0.00 0.00 0.00 72 997.0
20260505214556 85 139 0.0 3.0 0.00 0.00 0.00 70 997.1
20260505213045 85 140 0.0 9.0 0.00 0.00 0.00 69 997.4
20260505211540 85 167 0.0 4.0 0.00 0.00 0.00 70 997.5
20260505210038 85 186 0.0 8.0 0.00 0.00 0.00 69 997.7
20260505204535 85 205 2.0 9.0 0.00 0.00 0.00 69 998.0
20260505203036 85 216 1.0 10.0 0.00 0.00 0.00 68 998.1
20260505201533 85 178 0.0 3.0 0.00 0.00 0.00 69 998.0
20260505200036 85 150 0.0 9.0 0.00 0.00 0.00 69 998.2
20260505194530 85 191 0.0 6.0 0.00 0.00 0.00 69 998.4
20260505193027 84 151 0.0 6.0 0.00 0.00 0.00 70 998.5
20260505191526 83 193 0.0 0.0 0.00 0.00 0.00 71 998.5
20260505190024 83 135 0.0 0.0 0.00 0.00 0.00 71 998.5
20260505184527 83 184 0.0 0.0 0.00 0.00 0.00 71 998.6
20260505183039 83 186 0.0 0.0 0.00 0.00 0.00 72 998.8
20260505181522 82 185 0.0 0.0 0.00 0.00 0.00 73 999.3
20260505180019 82 110 0.0 0.0 0.00 0.00 0.00 72 999.3
20260505174517 82 181 0.0 4.0 0.00 0.00 0.00 73 999.5
20260505173021 81 157 0.0 0.0 0.00 0.00 0.00 74 999.8
20260505171516 81 152 0.0 6.0 0.00 0.00 0.00 73 999.8
20260505170012 80 148 0.0 0.0 0.00 0.00 0.00 74 999.8
20260505164511 80 181 0.0 7.0 0.00 0.00 0.00 75 999.7
20260505163009 79 169 0.0 0.0 0.00 0.00 0.00 78 999.8
20260505161506 78 224 0.0 0.0 0.00 0.00 0.00 77 999.8
20260505153056 75 177 0.0 0.0 0.00 0.00 0.00 84 999.9
20260505151558 75 177 0.0 0.0 0.00 0.00 0.00 84 999.9
20260505124538 70 170 0.0 0.0 0.00 0.00 0.00 90 999.0
20260505123030 0 0.0 0.0 0.00 0.00 0.00 998.8
20260505121526 0 0.0 0.0 0.00 0.00 0.00 998.6
20260505120023 0 0.0 0.0 0.00 0.00 0.00 998.4
20260505114517 0 0.0 0.0 0.00 0.00 0.00 998.4
20260505113012 0 0.0 0.0 0.00 0.00 0.00 998.2
20260505111508 0 0.0 0.0 0.00 0.00 0.00 998.3
20260505101551 0 0.0 0.0 0.00 0.00 0.00 998.4
20260505100048 0 0.0 0.0 0.00 0.00 0.00 998.5
20260505094543 70 130 0.0 0.0 0.00 0.00 0.00 89 998.5
20260505093043 70 212 0.0 0.0 0.00 0.00 0.00 89 998.5
20260505091542 70 147 0.0 0.0 0.00 0.00 0.00 89 998.6
20260505090042 70 165 0.0 0.0 0.00 0.00 0.00 89 998.7
20260505084547 70 177 0.0 0.0 0.00 0.00 0.00 89 998.6
20260505083038 70 129 0.0 0.0 0.00 0.00 0.00 89 998.7